AVA1408 ENBR-EPKK

Flight info

Callsign AVA1408
Flight time 2h 6m
Altitude 34000
Route TUXIL DCT ZOL DCT PEVEB DCT SONAL DCT BINKA DCT NUDRO DCT MOFKE
Aircraft A20N/M-SDE2E3FGHIRWXY/LB1

Departure

Time 2026-05-06 18:07
Airport Bergen Airport, Flesland (ENBR)

Arrival

Time 2026-05-06 20:13
Airport Kraków John Paul II International Airport (EPKK)
Time Latitude Longitude Altitude Speed Heading
2026-05-06 17:11 60.29097 5.22736 156 ft 0 kts
2026-05-06 17:55 60.29089 5.22733 163 ft 1 kts
2026-05-06 17:55 60.29088 5.22733 163 ft 0 kts
2026-05-06 17:56 60.29075 5.22729 162 ft 2 kts
2026-05-06 17:56 60.29058 5.22727 162 ft 2 kts 322°
2026-05-06 17:56 60.29048 5.22752 162 ft 0 kts 278°
2026-05-06 17:58 60.29048 5.22751 162 ft 0 kts 278°
2026-05-06 17:58 60.29048 5.22748 162 ft 1 kts 279°
2026-05-06 17:59 60.29052 5.22680 162 ft 9 kts 272°
2026-05-06 17:59 60.29043 5.22561 162 ft 8 kts 261°
2026-05-06 17:59 60.29040 5.22522 162 ft 0 kts 262°
2026-05-06 17:59 60.29040 5.22519 162 ft 1 kts 262°
2026-05-06 18:00 60.29037 5.22482 162 ft 5 kts 263°
2026-05-06 18:00 60.29056 5.22368 162 ft 12 kts 320°
2026-05-06 18:00 60.29112 5.22217 163 ft 13 kts 341°
2026-05-06 18:00 60.29204 5.22196 164 ft 16 kts 345°
2026-05-06 18:01 60.29315 5.22146 165 ft 0 kts 351°
2026-05-06 18:01 60.29336 5.22139 165 ft 8 kts 351°
2026-05-06 18:01 60.29379 5.22125 165 ft 2 kts 351°
2026-05-06 18:01 60.29427 5.22110 166 ft 11 kts 351°
2026-05-06 18:02 60.29531 5.22076 167 ft 19 kts 351°
2026-05-06 18:02 60.29684 5.22025 168 ft 25 kts 350°
2026-05-06 18:02 60.29863 5.21963 170 ft 28 kts 350°
2026-05-06 18:02 60.30048 5.21902 171 ft 25 kts 350°
2026-05-06 18:03 60.30227 5.21840 173 ft 29 kts 351°
2026-05-06 18:03 60.30356 5.21797 174 ft 0 kts 351°
2026-05-06 18:03 60.30391 5.21786 174 ft 10 kts 351°
2026-05-06 18:03 60.30442 5.21679 174 ft 12 kts 273°
2026-05-06 18:04 60.30441 5.21647 174 ft 2 kts 257°
2026-05-06 18:04 60.30440 5.21639 174 ft 0 kts 257°
2026-05-06 18:04 60.30440 5.21638 174 ft 0 kts 257°
2026-05-06 18:05 60.30435 5.21599 174 ft 8 kts 256°
2026-05-06 18:06 60.30386 5.21472 172 ft 15 kts 194°
2026-05-06 18:06 60.30350 5.21478 172 ft 6 kts 171°
2026-05-06 18:06 60.30342 5.21481 172 ft 0 kts 171°
2026-05-06 18:06 60.30256 5.21508 171 ft 42 kts 171°
2026-05-06 18:07 60.29726 5.21682 170 ft 108 kts 171°
2026-05-06 18:07 60.28819 5.21990 172 ft 156 kts 171°
2026-05-06 18:07 60.27761 5.22348 757 ft 150 kts 171°
2026-05-06 18:07 60.26713 5.22728 1314 ft 156 kts 170°
2026-05-06 18:08 60.25621 5.23146 1791 ft 164 kts 169°
2026-05-06 18:08 60.24492 5.23598 2339 ft 169 kts 169°
2026-05-06 18:08 60.23312 5.24073 2916 ft 175 kts 171°
2026-05-06 18:08 60.22070 5.24461 3466 ft 189 kts 173°
2026-05-06 18:09 60.20702 5.24827 3953 ft 209 kts 173°
2026-05-06 18:09 60.19214 5.25246 4367 ft 231 kts 172°
2026-05-06 18:09 60.17512 5.25770 4874 ft 254 kts 171°
2026-05-06 18:09 60.15726 5.26351 5434 ft 271 kts 171°
2026-05-06 18:10 60.13846 5.26976 5569 ft 271 kts 171°
2026-05-06 18:10 60.12000 5.27594 5687 ft 272 kts 171°
2026-05-06 18:10 60.10131 5.28218 5806 ft 272 kts 171°
2026-05-06 18:10 60.08240 5.28832 5914 ft 273 kts 172°
2026-05-06 18:11 60.06362 5.29351 5948 ft 273 kts 173°
2026-05-06 18:11 60.05112 5.29673 5949 ft 273 kts 173°
2026-05-06 18:11 60.02591 5.30317 5942 ft 273 kts 173°
2026-05-06 18:11 60.00707 5.30807 5943 ft 273 kts 173°
2026-05-06 18:12 59.98839 5.31300 5946 ft 273 kts 173°
2026-05-06 18:12 59.96948 5.31804 5949 ft 273 kts 173°
2026-05-06 18:12 59.95074 5.32304 5944 ft 273 kts 173°
2026-05-06 18:12 59.93190 5.32806 5948 ft 273 kts 173°
2026-05-06 18:13 59.91307 5.33309 5942 ft 273 kts 173°
2026-05-06 18:13 59.89433 5.33808 5947 ft 273 kts 173°
2026-05-06 18:13 59.88176 5.34142 5943 ft 273 kts 173°
2026-05-06 18:13 59.86287 5.34643 5946 ft 273 kts 173°
2026-05-06 18:14 59.84386 5.35146 5945 ft 273 kts 173°
2026-05-06 18:14 59.82529 5.35638 5941 ft 273 kts 173°
2026-05-06 18:14 59.80631 5.36141 5949 ft 273 kts 173°
2026-05-06 18:14 59.78758 5.36603 5943 ft 273 kts 174°
2026-05-06 18:15 59.76861 5.36929 5942 ft 273 kts 176°
2026-05-06 18:15 59.74957 5.37206 5948 ft 273 kts 176°
2026-05-06 18:15 59.73062 5.37484 5945 ft 273 kts 176°
2026-05-06 18:15 59.71188 5.37773 5995 ft 275 kts 176°
2026-05-06 18:16 59.69259 5.38082 6429 ft 277 kts 175°
2026-05-06 18:16 59.67316 5.38400 7436 ft 276 kts 175°
2026-05-06 18:16 59.65410 5.38713 8358 ft 280 kts 175°
2026-05-06 18:16 59.63443 5.39065 9249 ft 284 kts 174°
2026-05-06 18:17 59.61486 5.39549 10111 ft 288 kts 173°
2026-05-06 18:17 59.59431 5.40106 10620 ft 308 kts 172°
2026-05-06 18:17 59.57225 5.40701 10940 ft 330 kts 173°
2026-05-06 18:17 59.54918 5.41307 11507 ft 341 kts 173°
2026-05-06 18:18 59.52539 5.41919 12327 ft 345 kts 173°
2026-05-06 18:18 59.50145 5.42527 13108 ft 349 kts 173°
2026-05-06 18:18 59.47718 5.43140 13856 ft 353 kts 173°
2026-05-06 18:18 59.45275 5.43754 14575 ft 358 kts 173°
2026-05-06 18:19 59.42779 5.44381 15321 ft 361 kts 173°
2026-05-06 18:19 59.40308 5.45008 16030 ft 364 kts 172°
2026-05-06 18:19 59.37806 5.45890 16564 ft 370 kts 169°
2026-05-06 18:19 59.35262 5.46827 16752 ft 370 kts 169°
2026-05-06 18:20 59.32733 5.47756 16890 ft 370 kts 169°
2026-05-06 18:20 59.30183 5.48688 16995 ft 372 kts 169°
2026-05-06 18:20 59.27611 5.49625 17430 ft 376 kts 169°
2026-05-06 18:20 59.25056 5.50552 18177 ft 376 kts 169°
2026-05-06 18:21 59.22491 5.51481 18789 ft 380 kts 169°
2026-05-06 18:21 59.19865 5.52431 19399 ft 384 kts 169°
2026-05-06 18:21 59.17209 5.53390 19997 ft 387 kts 169°
2026-05-06 18:21 59.14568 5.54342 20585 ft 391 kts 169°
2026-05-06 18:22 59.11884 5.55308 21149 ft 394 kts 169°
2026-05-06 18:22 59.09178 5.56281 21702 ft 397 kts 169°
2026-05-06 18:22 59.06440 5.57263 22247 ft 401 kts 170°
2026-05-06 18:22 59.03655 5.58261 22782 ft 404 kts 170°
2026-05-06 18:23 59.00904 5.59245 23294 ft 407 kts 170°
2026-05-06 18:23 58.98086 5.60252 23797 ft 411 kts 170°
2026-05-06 18:23 58.95294 5.61247 24294 ft 414 kts 170°
2026-05-06 18:23 58.92432 5.62269 24779 ft 417 kts 169°
2026-05-06 18:24 58.89658 5.63981 25224 ft 420 kts 154°
2026-05-06 18:24 58.87200 5.66964 25650 ft 423 kts 140°
2026-05-06 18:24 58.85152 5.71123 26066 ft 427 kts 126°
2026-05-06 18:24 58.83559 5.75936 26477 ft 430 kts 121°
2026-05-06 18:25 58.82023 5.80945 26872 ft 433 kts 120°
2026-05-06 18:25 58.80489 5.85952 27265 ft 436 kts 121°
2026-05-06 18:25 58.78915 5.91007 27620 ft 439 kts 121°
2026-05-06 18:25 58.77341 5.95984 28032 ft 440 kts 121°
2026-05-06 18:26 58.75728 6.01039 28365 ft 443 kts 122°
2026-05-06 18:26 58.74092 6.06137 28649 ft 448 kts 122°
2026-05-06 18:26 58.72440 6.11266 29010 ft 449 kts 122°
2026-05-06 18:26 58.70802 6.16343 29339 ft 451 kts 122°
2026-05-06 18:27 58.69137 6.21493 29677 ft 452 kts 122°
2026-05-06 18:27 58.67467 6.26647 29928 ft 456 kts 122°
2026-05-06 18:27 58.65792 6.31806 30205 ft 459 kts 122°
2026-05-06 18:27 58.64071 6.36957 30565 ft 460 kts 126°
2026-05-06 18:28 58.61977 6.41649 30770 ft 464 kts 134°
2026-05-06 18:28 58.59724 6.46124 31167 ft 463 kts 134°
2026-05-06 18:28 58.57489 6.50540 31527 ft 463 kts 134°
2026-05-06 18:28 58.55239 6.54968 31908 ft 463 kts 134°
2026-05-06 18:29 58.52981 6.59394 32278 ft 463 kts 134°
2026-05-06 18:29 58.50755 6.63748 32634 ft 462 kts 134°
2026-05-06 18:29 58.48499 6.68149 33078 ft 459 kts 134°
2026-05-06 18:29 58.46268 6.72494 33419 ft 459 kts 134°
2026-05-06 18:30 58.44012 6.76880 33697 ft 459 kts 134°
2026-05-06 18:30 58.41799 6.81174 33908 ft 458 kts 135°
2026-05-06 18:30 58.37332 6.89801 34000 ft 456 kts 135°
2026-05-06 18:31 58.32877 6.98366 34000 ft 455 kts 135°
2026-05-06 18:31 58.28405 7.06930 34000 ft 456 kts 135°
2026-05-06 18:32 58.23946 7.15438 34001 ft 456 kts 135°
2026-05-06 18:32 58.19418 7.24044 33954 ft 454 kts 135°
2026-05-06 18:33 58.17213 7.28223 33610 ft 452 kts 135°
2026-05-06 18:33 58.14972 7.32463 33188 ft 449 kts 135°
2026-05-06 18:33 58.12762 7.36636 33039 ft 453 kts 135°
2026-05-06 18:33 58.10498 7.40902 33002 ft 458 kts 135°
2026-05-06 18:34 58.05995 7.49364 32999 ft 456 kts 135°
2026-05-06 18:34 58.01471 7.57834 33001 ft 456 kts 135°
2026-05-06 18:35 57.96971 7.66228 32999 ft 455 kts 135°
2026-05-06 18:35 57.96770 7.66601 32999 ft 455 kts 135°
2026-05-06 18:36 57.94662 7.70521 33002 ft 455 kts 135°
2026-05-06 18:36 57.90156 7.78880 33000 ft 456 kts 135°
2026-05-06 18:37 57.86404 7.85815 33002 ft 456 kts 135°
2026-05-06 18:37 57.81066 7.95644 33001 ft 456 kts 136°
2026-05-06 18:38 57.76524 8.03975 33001 ft 456 kts 136°
2026-05-06 18:38 57.72005 8.12232 33002 ft 456 kts 136°
2026-05-06 18:39 57.67436 8.20550 33003 ft 456 kts 136°
2026-05-06 18:40 57.60643 8.32860 33003 ft 456 kts 136°
2026-05-06 18:40 57.56077 8.41096 33001 ft 456 kts 136°
2026-05-06 18:41 57.51538 8.49255 33001 ft 456 kts 136°
2026-05-06 18:41 57.46931 8.57505 33001 ft 465 kts 136°
2026-05-06 18:42 57.42198 8.65947 33000 ft 476 kts 136°
2026-05-06 18:42 57.38221 8.73018 33000 ft 475 kts 136°
2026-05-06 18:43 57.33436 8.81496 33001 ft 475 kts 136°
2026-05-06 18:43 57.28648 8.89947 33000 ft 475 kts 136°
2026-05-06 18:44 57.23864 8.98357 33000 ft 475 kts 136°
2026-05-06 18:44 57.19072 9.06752 33001 ft 475 kts 136°
2026-05-06 18:45 57.14253 9.15161 32999 ft 475 kts 136°
2026-05-06 18:45 57.09468 9.23481 33001 ft 475 kts 137°
2026-05-06 18:46 57.04537 9.32020 32999 ft 475 kts 137°
2026-05-06 18:46 56.99596 9.40546 33001 ft 475 kts 137°
2026-05-06 18:47 56.94774 9.48833 33000 ft 475 kts 137°
2026-05-06 18:47 56.89961 9.57076 33001 ft 475 kts 137°
2026-05-06 18:48 56.85123 9.65329 33001 ft 475 kts 137°
2026-05-06 18:48 56.80296 9.73535 32999 ft 475 kts 137°
2026-05-06 18:49 56.75402 9.81823 33000 ft 476 kts 137°
2026-05-06 18:49 56.70546 9.90017 33000 ft 476 kts 137°
2026-05-06 18:50 56.65662 9.98226 33001 ft 475 kts 137°
2026-05-06 18:50 56.60726 10.06494 32999 ft 476 kts 137°
2026-05-06 18:51 56.55854 10.14623 33000 ft 475 kts 137°
2026-05-06 18:51 56.50986 10.22716 33000 ft 475 kts 137°
2026-05-06 18:52 56.46122 10.30773 33000 ft 475 kts 137°
2026-05-06 18:52 56.41245 10.38822 33001 ft 475 kts 137°
2026-05-06 18:53 56.36351 10.46871 33001 ft 475 kts 138°
2026-05-06 18:53 56.31452 10.54898 33000 ft 475 kts 138°
2026-05-06 18:54 56.26482 10.63012 33000 ft 475 kts 138°
2026-05-06 18:54 56.21537 10.71056 33000 ft 475 kts 138°
2026-05-06 18:55 56.16609 10.79043 32999 ft 475 kts 138°
2026-05-06 18:55 56.11674 10.87012 33000 ft 475 kts 138°
2026-05-06 18:56 56.06755 10.94927 33002 ft 475 kts 138°
2026-05-06 18:56 56.02673 11.01474 33000 ft 475 kts 138°
2026-05-06 18:57 55.97744 11.09354 33001 ft 475 kts 138°
2026-05-06 18:57 55.92820 11.17198 33001 ft 475 kts 138°
2026-05-06 18:58 55.87886 11.25028 33000 ft 475 kts 138°
2026-05-06 18:58 55.82932 11.32864 33001 ft 475 kts 139°
2026-05-06 18:59 55.77990 11.40653 33000 ft 475 kts 139°
2026-05-06 18:59 55.73012 11.48470 33002 ft 475 kts 139°
2026-05-06 19:00 55.68066 11.56210 33000 ft 477 kts 139°
2026-05-06 19:00 55.63066 11.64007 33000 ft 479 kts 139°
2026-05-06 19:01 55.58036 11.71824 33001 ft 479 kts 139°
2026-05-06 19:01 55.53011 11.79604 32999 ft 479 kts 139°
2026-05-06 19:02 55.48027 11.87295 33000 ft 479 kts 139°
2026-05-06 19:02 55.42995 11.95031 32999 ft 479 kts 139°
2026-05-06 19:03 55.37953 12.02756 32999 ft 473 kts 139°
2026-05-06 19:03 55.35531 12.06458 33001 ft 458 kts 139°
2026-05-06 19:03 55.33116 12.10142 33001 ft 465 kts 139°
2026-05-06 19:04 55.28147 12.17703 33000 ft 478 kts 139°
2026-05-06 19:04 55.23108 12.25344 32999 ft 479 kts 139°
2026-05-06 19:05 55.18054 12.32982 33001 ft 479 kts 139°
2026-05-06 19:05 55.13011 12.40576 32999 ft 479 kts 139°
2026-05-06 19:06 55.07971 12.48140 32999 ft 479 kts 139°
2026-05-06 19:06 55.02958 12.55639 33002 ft 479 kts 139°
2026-05-06 19:07 54.97846 12.63271 33001 ft 479 kts 140°
2026-05-06 19:07 54.92806 12.70773 33002 ft 479 kts 140°
2026-05-06 19:08 54.87730 12.78236 33000 ft 478 kts 141°
2026-05-06 19:08 54.82470 12.85408 33001 ft 478 kts 141°
2026-05-06 19:09 54.77266 12.92639 33002 ft 478 kts 141°
2026-05-06 19:09 54.72054 12.99824 32999 ft 478 kts 142°
2026-05-06 19:10 54.66843 13.06954 33000 ft 478 kts 142°
2026-05-06 19:10 54.61597 13.14105 33000 ft 478 kts 142°
2026-05-06 19:11 54.56397 13.21168 33000 ft 478 kts 142°
2026-05-06 19:11 54.51159 13.28261 33000 ft 478 kts 142°
2026-05-06 19:12 54.45928 13.35319 33001 ft 479 kts 142°
2026-05-06 19:12 54.40669 13.42392 33001 ft 479 kts 142°
2026-05-06 19:13 54.35425 13.49422 32999 ft 479 kts 142°
2026-05-06 19:13 54.30150 13.56468 32999 ft 478 kts 142°
2026-05-06 19:14 54.24921 13.63431 33002 ft 478 kts 142°
2026-05-06 19:14 54.19626 13.70457 32999 ft 478 kts 142°
2026-05-06 19:15 54.14361 13.77421 32999 ft 478 kts 142°
2026-05-06 19:15 54.09093 13.84366 33000 ft 478 kts 142°
2026-05-06 19:16 54.03857 13.91246 33000 ft 478 kts 142°
2026-05-06 19:16 53.98529 13.98225 32999 ft 478 kts 142°
2026-05-06 19:17 53.93188 14.05197 33002 ft 478 kts 142°
2026-05-06 19:17 53.87926 14.12043 33001 ft 478 kts 142°
2026-05-06 19:18 53.82611 14.18935 33001 ft 478 kts 143°
2026-05-06 19:18 53.77332 14.25761 33001 ft 478 kts 143°
2026-05-06 19:19 53.72018 14.32548 32999 ft 478 kts 143°
2026-05-06 19:19 53.66679 14.39251 33000 ft 478 kts 143°
2026-05-06 19:20 53.61334 14.45971 32999 ft 478 kts 143°
2026-05-06 19:20 53.56003 14.52660 33001 ft 478 kts 143°
2026-05-06 19:21 53.50656 14.59345 32999 ft 479 kts 143°
2026-05-06 19:21 53.45310 14.66004 32999 ft 478 kts 143°
2026-05-06 19:22 53.39955 14.72654 33001 ft 478 kts 143°
2026-05-06 19:22 53.34631 14.79244 33001 ft 479 kts 143°
2026-05-06 19:23 53.29270 14.85859 32999 ft 479 kts 143°
2026-05-06 19:23 53.23912 14.92449 33000 ft 478 kts 144°
2026-05-06 19:24 53.18541 14.99033 32999 ft 478 kts 144°
2026-05-06 19:24 53.13194 15.05568 33000 ft 479 kts 144°
2026-05-06 19:25 53.07796 15.12144 33001 ft 479 kts 144°
2026-05-06 19:25 53.02419 15.18674 33001 ft 479 kts 144°
2026-05-06 19:26 52.97890 15.24157 33001 ft 479 kts 144°
2026-05-06 19:26 52.92485 15.30684 33000 ft 479 kts 144°
2026-05-06 19:27 52.87141 15.37116 33000 ft 479 kts 144°
2026-05-06 19:27 52.81730 15.43608 33001 ft 479 kts 144°
2026-05-06 19:28 52.76340 15.50054 33001 ft 478 kts 144°
2026-05-06 19:28 52.70949 15.56482 33001 ft 479 kts 144°
2026-05-06 19:29 52.65513 15.62944 33001 ft 479 kts 144°
2026-05-06 19:29 52.60121 15.69333 32999 ft 479 kts 144°
2026-05-06 19:30 52.54713 15.75721 32999 ft 479 kts 144°
2026-05-06 19:30 52.49292 15.82104 32999 ft 479 kts 144°
2026-05-06 19:31 52.43865 15.88475 33000 ft 479 kts 144°
2026-05-06 19:31 52.35708 15.98014 32999 ft 479 kts 144°
2026-05-06 19:32 52.30262 16.04358 33001 ft 479 kts 144°
2026-05-06 19:32 52.24870 16.10620 33000 ft 479 kts 144°
2026-05-06 19:33 52.19439 16.16908 33001 ft 479 kts 144°
2026-05-06 19:33 52.13925 16.23272 33001 ft 479 kts 145°
2026-05-06 19:34 52.08473 16.29545 33000 ft 479 kts 145°
2026-05-06 19:34 52.03059 16.35757 33000 ft 479 kts 145°
2026-05-06 19:35 51.97605 16.41994 32999 ft 479 kts 145°
2026-05-06 19:35 51.92131 16.48236 33000 ft 479 kts 145°
2026-05-06 19:36 51.86682 16.54430 33000 ft 479 kts 145°
2026-05-06 19:36 51.81233 16.60605 33000 ft 479 kts 145°
2026-05-06 19:37 51.75757 16.66793 32999 ft 479 kts 145°
2026-05-06 19:37 51.70308 16.72932 33000 ft 479 kts 145°
2026-05-06 19:38 51.64839 16.79074 33000 ft 474 kts 145°
2026-05-06 19:38 51.62184 16.82050 32999 ft 458 kts 145°
2026-05-06 19:38 51.59604 16.84938 33001 ft 450 kts 145°
2026-05-06 19:39 51.54429 16.90715 33000 ft 457 kts 145°
2026-05-06 19:39 51.49177 16.96564 32999 ft 456 kts 145°
2026-05-06 19:40 51.43989 17.02325 33000 ft 456 kts 145°
2026-05-06 19:40 51.38735 17.08142 33000 ft 456 kts 146°
2026-05-06 19:41 51.33542 17.13876 33000 ft 456 kts 146°
2026-05-06 19:41 51.28347 17.19595 32999 ft 457 kts 146°
2026-05-06 19:42 51.25694 17.22511 32855 ft 457 kts 146°
2026-05-06 19:42 51.23054 17.25411 32600 ft 456 kts 146°
2026-05-06 19:42 51.20449 17.28268 32351 ft 456 kts 146°
2026-05-06 19:42 51.17824 17.31145 32117 ft 457 kts 146°
2026-05-06 19:43 51.15206 17.34033 31853 ft 457 kts 144°
2026-05-06 19:43 51.12706 17.37007 31609 ft 458 kts 142°
2026-05-06 19:43 51.10097 17.40229 31350 ft 458 kts 142°
2026-05-06 19:43 51.07605 17.43310 31108 ft 459 kts 142°
2026-05-06 19:44 51.05056 17.46436 30852 ft 459 kts 142°
2026-05-06 19:44 51.02520 17.49518 30595 ft 459 kts 143°
2026-05-06 19:44 50.99993 17.52574 30351 ft 457 kts 143°
2026-05-06 19:44 50.97459 17.55628 30102 ft 455 kts 143°
2026-05-06 19:45 50.94967 17.58626 29854 ft 453 kts 143°
2026-05-06 19:45 50.92428 17.61674 29602 ft 452 kts 143°
2026-05-06 19:45 50.89883 17.64727 29347 ft 450 kts 143°
2026-05-06 19:45 50.87403 17.67697 29097 ft 448 kts 143°
2026-05-06 19:46 50.84941 17.70642 28850 ft 446 kts 143°
2026-05-06 19:46 50.82432 17.73639 28596 ft 444 kts 143°
2026-05-06 19:46 50.79964 17.76584 28346 ft 443 kts 143°
2026-05-06 19:46 50.77502 17.79518 28095 ft 441 kts 143°
2026-05-06 19:47 50.75075 17.82405 27856 ft 439 kts 143°
2026-05-06 19:47 50.72630 17.85310 27601 ft 438 kts 143°
2026-05-06 19:47 50.70212 17.88179 27346 ft 436 kts 143°
2026-05-06 19:47 50.67790 17.91050 27094 ft 434 kts 143°
2026-05-06 19:48 50.65390 17.93889 26849 ft 433 kts 143°
2026-05-06 19:48 50.63001 17.96718 26608 ft 431 kts 142°
2026-05-06 19:48 50.60851 17.99988 26346 ft 429 kts 128°
2026-05-06 19:48 50.59263 18.03975 26097 ft 428 kts 114°
2026-05-06 19:49 50.58307 18.08423 25850 ft 427 kts 104°
2026-05-06 19:49 50.57661 18.12951 25601 ft 425 kts 102°
2026-05-06 19:49 50.57024 18.17476 25343 ft 424 kts 103°
2026-05-06 19:49 50.56317 18.21985 25100 ft 422 kts 104°
2026-05-06 19:50 50.55560 18.26405 24852 ft 420 kts 105°
2026-05-06 19:50 50.54765 18.30808 24603 ft 419 kts 106°
2026-05-06 19:50 50.53943 18.35251 24349 ft 417 kts 106°
2026-05-06 19:50 50.53130 18.39608 24101 ft 416 kts 106°
2026-05-06 19:51 50.52319 18.43937 23849 ft 414 kts 106°
2026-05-06 19:51 50.51501 18.48301 23599 ft 413 kts 106°
2026-05-06 19:51 50.50698 18.52574 23352 ft 411 kts 106°
2026-05-06 19:51 50.49893 18.56859 23103 ft 410 kts 106°
2026-05-06 19:52 50.49082 18.61160 22852 ft 408 kts 107°
2026-05-06 19:52 50.48279 18.65410 22602 ft 407 kts 107°
2026-05-06 19:52 50.47470 18.69685 22352 ft 405 kts 107°
2026-05-06 19:52 50.46672 18.73893 22102 ft 403 kts 107°
2026-05-06 19:53 50.45876 18.78082 21846 ft 402 kts 107°
2026-05-06 19:53 50.45065 18.82334 21601 ft 401 kts 107°
2026-05-06 19:53 50.44274 18.86480 21360 ft 399 kts 107°
2026-05-06 19:53 50.43479 18.90629 21102 ft 398 kts 107°
2026-05-06 19:54 50.42675 18.94822 20850 ft 396 kts 107°
2026-05-06 19:54 50.41889 18.98914 20605 ft 394 kts 107°
2026-05-06 19:54 50.41099 19.03010 20352 ft 393 kts 107°
2026-05-06 19:54 50.40311 19.07095 20101 ft 392 kts 107°
2026-05-06 19:55 50.39517 19.11195 19851 ft 391 kts 107°
2026-05-06 19:55 50.38994 19.13895 19685 ft 389 kts 107°
2026-05-06 19:55 50.37944 19.19302 19352 ft 387 kts 107°
2026-05-06 19:55 50.37167 19.23291 19103 ft 386 kts 107°
2026-05-06 19:56 50.36642 19.25982 18936 ft 385 kts 107°
2026-05-06 19:56 50.35856 19.30005 18662 ft 384 kts 107°
2026-05-06 19:56 50.35078 19.33978 18164 ft 384 kts 107°
2026-05-06 19:56 50.34292 19.37987 17644 ft 381 kts 107°
2026-05-06 19:57 50.33508 19.41974 17114 ft 377 kts 107°
2026-05-06 19:57 50.32747 19.45834 16597 ft 373 kts 107°
2026-05-06 19:57 50.32513 19.47019 16444 ft 372 kts 107°
2026-05-06 19:58 50.31750 19.50885 15937 ft 368 kts 107°
2026-05-06 19:58 50.31030 19.54523 15452 ft 364 kts 107°
2026-05-06 19:58 50.30283 19.58288 14949 ft 360 kts 107°
2026-05-06 19:58 50.29549 19.61981 14602 ft 352 kts 107°
2026-05-06 19:59 50.28829 19.65597 14461 ft 339 kts 107°
2026-05-06 19:59 50.28138 19.69062 14332 ft 325 kts 107°
2026-05-06 19:59 50.27480 19.72352 14221 ft 313 kts 107°
2026-05-06 19:59 50.26837 19.75565 14111 ft 300 kts 107°
2026-05-06 20:00 50.26227 19.78607 14007 ft 288 kts 107°
2026-05-06 20:00 50.25641 19.81527 13832 ft 279 kts 107°
2026-05-06 20:00 50.25062 19.84405 13588 ft 274 kts 107°
2026-05-06 20:00 50.24499 19.87201 13317 ft 269 kts 107°
2026-05-06 20:01 50.23933 19.90006 12977 ft 267 kts 108°
2026-05-06 20:01 50.23383 19.92731 12642 ft 263 kts 108°
2026-05-06 20:01 50.22841 19.95413 12324 ft 258 kts 108°
2026-05-06 20:01 50.22304 19.98065 12005 ft 253 kts 108°
2026-05-06 20:02 50.21775 20.00675 11609 ft 252 kts 108°
2026-05-06 20:02 50.21249 20.03271 11317 ft 248 kts 108°
2026-05-06 20:02 50.20837 20.05833 10999 ft 244 kts 95°
2026-05-06 20:02 50.20910 20.08454 10684 ft 240 kts 78°
2026-05-06 20:03 50.21272 20.10967 10376 ft 237 kts 77°
2026-05-06 20:03 50.21620 20.13468 10077 ft 240 kts 78°
2026-05-06 20:03 50.21993 20.16225 9755 ft 271 kts 78°
2026-05-06 20:03 50.22380 20.19114 9649 ft 273 kts 78°
2026-05-06 20:04 50.22764 20.21978 9583 ft 265 kts 78°
2026-05-06 20:04 50.23135 20.24730 9339 ft 259 kts 78°
2026-05-06 20:04 50.23461 20.27520 8816 ft 261 kts 88°
2026-05-06 20:04 50.23118 20.30293 8184 ft 261 kts 117°
2026-05-06 20:05 50.21990 20.32426 7607 ft 257 kts 146°
2026-05-06 20:05 50.20379 20.33465 7126 ft 251 kts 168°
2026-05-06 20:05 50.18678 20.33894 6614 ft 248 kts 174°
2026-05-06 20:05 50.16994 20.33662 6290 ft 236 kts 201°
2026-05-06 20:06 50.15607 20.32258 6198 ft 242 kts 229°
2026-05-06 20:06 50.14817 20.29987 6132 ft 240 kts 257°
2026-05-06 20:06 50.14484 20.27448 5942 ft 239 kts 260°
2026-05-06 20:06 50.14192 20.24903 5836 ft 235 kts 259°
2026-05-06 20:07 50.13869 20.22414 5752 ft 235 kts 258°
2026-05-06 20:07 50.13522 20.19908 5369 ft 233 kts 258°
2026-05-06 20:07 50.13187 20.17487 4770 ft 232 kts 258°
2026-05-06 20:07 50.12844 20.15014 4339 ft 231 kts 258°
2026-05-06 20:08 50.12501 20.12542 4216 ft 233 kts 258°
2026-05-06 20:08 50.12177 20.10210 4185 ft 207 kts 258°
2026-05-06 20:08 50.11891 20.08146 4205 ft 181 kts 258°
2026-05-06 20:08 50.11649 20.06403 4189 ft 150 kts 258°
2026-05-06 20:09 50.11439 20.04892 4196 ft 141 kts 258°
2026-05-06 20:09 50.11234 20.03412 4194 ft 140 kts 258°
2026-05-06 20:09 50.11030 20.01938 4165 ft 137 kts 258°
2026-05-06 20:09 50.10828 20.00482 3930 ft 138 kts 258°
2026-05-06 20:10 50.10626 19.99030 3625 ft 138 kts 258°
2026-05-06 20:10 50.10423 19.97566 3321 ft 137 kts 258°
2026-05-06 20:10 50.10224 19.96131 3022 ft 137 kts 258°
2026-05-06 20:10 50.10024 19.94693 2743 ft 135 kts 258°
2026-05-06 20:11 50.09825 19.93256 2530 ft 136 kts 258°
2026-05-06 20:11 50.09625 19.91818 2337 ft 135 kts 258°
2026-05-06 20:11 50.09427 19.90391 2149 ft 135 kts 258°
2026-05-06 20:11 50.09228 19.88955 1965 ft 135 kts 258°
2026-05-06 20:12 50.09031 19.87536 1784 ft 134 kts 258°
2026-05-06 20:12 50.08834 19.86115 1608 ft 134 kts 258°
2026-05-06 20:12 50.08635 19.84684 1424 ft 134 kts 258°
2026-05-06 20:12 50.08439 19.83275 1251 ft 133 kts 258°
2026-05-06 20:13 50.08244 19.81869 1070 ft 133 kts 258°
2026-05-06 20:13 50.08046 19.80447 893 ft 133 kts 258°
2026-05-06 20:13 50.07855 19.79067 790 ft 124 kts 258°
2026-05-06 20:13 50.07737 19.78207 789 ft 37 kts 258°
2026-05-06 20:14 50.07697 19.77922 787 ft 28 kts 258°
2026-05-06 20:14 50.07654 19.77604 790 ft 32 kts 258°
2026-05-06 20:14 50.07604 19.77259 793 ft 26 kts 257°
2026-05-06 20:14 50.07586 19.77119 795 ft 16 kts 257°
2026-05-06 20:15 50.07552 19.76913 796 ft 20 kts 242°
2026-05-06 20:15 50.07464 19.76860 793 ft 18 kts 174°
2026-05-06 20:15 50.07319 19.76916 789 ft 22 kts 134°
2026-05-06 20:15 50.07338 19.77143 789 ft 22 kts 83°
2026-05-06 20:16 50.07366 19.77384 789 ft 23 kts 77°
2026-05-06 20:16 50.07401 19.77633 789 ft 24 kts 78°
2026-05-06 20:16 50.07436 19.77897 789 ft 25 kts 76°
2026-05-06 20:16 50.07475 19.78154 789 ft 24 kts 77°
2026-05-06 20:17 50.07512 19.78410 789 ft 25 kts 77°
2026-05-06 20:17 50.07547 19.78670 789 ft 25 kts 78°
2026-05-06 20:17 50.07581 19.78926 789 ft 23 kts 78°
2026-05-06 20:17 50.07613 19.79164 789 ft 22 kts 78°
2026-05-06 20:18 50.07646 19.79396 789 ft 22 kts 77°
2026-05-06 20:18 50.07679 19.79626 789 ft 22 kts 77°
2026-05-06 20:18 50.07702 19.79845 789 ft 16 kts 113°
2026-05-06 20:18 50.07604 19.79901 789 ft 16 kts 166°
2026-05-06 20:19 50.07486 19.79946 789 ft 18 kts 168°
2026-05-06 20:19 50.07454 19.79955 789 ft 2 kts 171°
2026-05-06 20:19 50.07425 19.79964 789 ft 6 kts 163°
2026-05-06 20:19 50.07402 19.80022 789 ft 7 kts 82°
2026-05-06 20:20 50.07386 19.80101 789 ft 9 kts 142°
2026-05-06 20:20 50.07367 19.80114 789 ft 0 kts 169°
2026-05-06 20:20 50.07365 19.80113 789 ft 1 kts 181°
2026-05-06 20:20 50.07352 19.80104 789 ft 4 kts 201°
2026-05-06 20:21 50.07335 19.80104 789 ft 1 kts 169°
2026-05-06 20:21 50.07327 19.80109 789 ft 2 kts 160°
2026-05-06 20:21 50.07321 19.80111 789 ft 1 kts 171°
2026-05-06 20:21 50.07320 19.80111 789 ft 0 kts 169°